Voltar ao catálogo

COSMOS 450

AtivoMilitarLEO
NORAD 5553·PAYLOAD·🇷🇺 Russia

Lançado Oct 13, 1971 de Plesetsk Cosmodrome

Loading…

Próximas Passagens (próximas 24 horas)

TLE

AtualizadoSource: Space-Track

Época: Sep 14, 2026, 09:17 UTC

1 05553U 71086G   26257.38744524 -.00000024  00000-0 -61966-4 0  9999
2 05553  74.0263 223.6283 0043461 312.9856 216.1124 12.42701613491480

Acompanhe COSMOS 450 em tempo real com AllMySat

Download on the App Store